Location: Chandolas
(44.4033°N, 4.2533°E)
Time: 11:56:01
(UTC+00:00)

Cosmos 2369 - Pass Details

Date: 23 February 2020
Orbit: 841 x 855 km, 71.0° (Epoch: 05 April)

Event Time Altitude Azimuth Distance (km) Brightness Sun altitude
Rises 05:44:32 0° 341° (NNW) 3,422 6.6 -9.1°
Reaches altitude 10° 05:47:24 10° 354° (N) 2,480 6.0 -8.6°
Maximum altitude 05:52:09 26° 51° (NE) 1,597 5.7 -7.8°
Drops below altitude 10° 05:56:51 10° 107° (ESE) 2,461 7.8 -6.9°
Sets 05:59:40 0° 120° (ESE) 3,391 8.3 -6.4°
